This demonstration page uses our WeatherBlox Daily Observations layout. Learn more.

41.55636, -103.73856

Hourly Observations for June 5, 2020

Temp ( °F °C ) Dew Point ( °F °C ) Humidity (%) Winds ( mph kmh ) Pressure ( in mb ) Visibility ( mi km ) Precip ( " mm )
12:58 am 00:58 Clear 76 24.7 49 9.3 38 38 E 12 19 29.74 1007 10 16.0934 0 0
1:58 am 01:58 Clear 69 20.6 50 10.1 51 51 ESE 10 17 29.73 1007 10 16.0934 0 0
2:58 am 02:58 Clear 69 20.5 49 9.2 48 48 Calm 29.74 1007 10 16.0934 0 0
3:58 am 03:58 Clear 62 16.7 48 8.9 60 60 SSW 9 15 29.75 1007 10 16.0934 0 0
4:58 am 04:58 Clear 63 17.2 46 7.5 53 53 SW 7 11 29.76 1008 10 16.0934 0 0
5:58 am 05:58 Clear 61 16.1 39 4 45 45 SSW 7 11 29.79 1009 10 16.0934 0 0
6:58 am 06:58 Clear 60 15.6 47 8.6 63 63 ENE 3 6 29.83 1010 10 16.0934 0 0
7:58 am 07:58 Clear 57 14.1 45 7 63 63 SSW 5 7 29.83 1010 10 16.0934 0 0
8:58 am 08:58 Clear 58 14.7 50 9.9 73 73 Calm 29.83 1010 10 16.0934 0 0
9:58 am 09:58 Clear 55 12.7 48 8.9 78 78 SSW 5 7 29.85 1011 10 16.0934 0 0
10:58 am 10:58 Clear 51 10.7 47 8.1 84 84 NW 6 9 29.89 1012 10 16.0934 0 0
11:58 am 11:58 Sunny 49 9.7 47 8.5 92 92 WSW 7 11 29.93 1014 10 16.0934 0 0
12:58 pm 12:58 Mostly Sunny 55 12.6 51 10.4 87 87 Calm 29.95 1014 10 16.0934 0 0
1:58 pm 13:58 Mostly Sunny 62 16.4 55 12.8 79 79 N 5 7 29.97 1015 10 16.0934 0 0
2:58 pm 14:58 Mostly Sunny 65 18.1 56 13.6 75 75 NE 6 9 29.96 1015 10 16.0934 0 0
3:58 pm 15:58 Sunny 69 20.4 56 13.2 63 63 ENE 7 11 29.97 1015 10 16.0934 0 0
4:58 pm 16:58 Sunny 73 22.8 55 12.6 53 53 SE 8 13 29.94 1014 10 16.0934 0 0
5:58 pm 17:58 Sunny 77 25 53 11.9 44 44 SE 7 11 29.92 1013 10 16.0934 0 0
6:58 pm 18:58 Sunny 80 26.8 51 10.7 37 37 E 6 9 29.9 1013 10 16.0934 0 0
7:58 pm 19:58 Sunny 85 29.2 50 10 30 30 ESE 8 13 29.88 1012 10 16.0934 0 0
8:58 pm 20:58 Sunny 87 30.3 48 9 27 27 SE 9 15 29.87 1011 10 16.0934 0 0
9:58 pm 21:58 Sunny 88 31.1 48 8.8 25 25 SE 15 24 29.85 1011 10 16.0934 0 0
10:58 pm 22:58 Mostly Sunny 88 31.1 46 8 24 24 SE 16 26 29.82 1010 10 16.0934 0 0
11:58 pm 23:58 Sunny 88 31.1 46 7.7 23 23 SE 17 28 29.8 1009 10 16.0934 0 0

Powered by AerisWeather